Albion, NE

8:28 AM CDT on April 30, 2017 (GMT -0500)
Albion Municipal

Weather History for KBVN - June, 2014

Change the Weather History Date:

Monday, June 2, 2014

  Actual Average (KOFK) Record (KOFK)
Temperature  
Mean Temperature 68 °F -  
Max Temperature 82 °F 76 °F 100 °F (1934)
Min Temperature 54 °F 51 °F 38 °F (1964)
Cooling Degree Days 3    
Growing Degree Days 18 (Base 50)    
Moisture  
Dew Point 51 °F    
Average Humidity 59    
Maximum Humidity 94    
Minimum Humidity 26    
Precipitation  
Precipitation 0.00 in - - ()
Sea Level Pressure  
Sea Level Pressure 29.93 in    
Wind  
Wind Speed 6 mph (NW)    
Max Wind Speed 18 mph    
Max Gust Speed 26 mph    
Visibility 10 miles    
Events      
Averages and records for this station are not official NWS values.
T = Trace of Precipitation, MM = Missing Value Source: NWS Daily Summary

Daily Weather History Graph

Daily Weather History Graph

Search for Another Location

Airport or City:

Trip Planner

Search our weather history database for the weather conditions in past years. The results will help you decide how hot, cold, wet, or windy it might be!

Date:

Astronomy

Jun. 02, 2014 Rise Set
Actual Time 5:59 AM CDT 9:01 PM CDT
Civil Twilight 5:26 AM CDT 9:34 PM CDT
Nautical Twilight 4:43 AM CDT 10:17 PM CDT
Astronomical Twilight 3:53 AM CDT 11:07 PM CDT
Moon 10:30 AM CDT (6/2) No Moon Set
Length of Visible Light 16h 08m
Length of Day
15h 01m
Waxing Crescent, 22% of the Moon is Illuminated
Jun 2
Waxing Crescent
Jun 5
First Quarter
Jun 12
Full
Jun 19
Last Quarter
Jun 27
New

Hourly Weather History & Observations

Time (CDT) Temp. Dew Point Humidity Pressure Visibility Wind Dir Wind Speed Gust Speed Precip Events Conditions
12:15 AM 61.5 °F 57.2 °F 86% 29.84 in 10.0 mi NNW 4.6 mph - N/A   Clear
12:35 AM 61.2 °F 57.4 °F 87% 29.80 in 10.0 mi Calm Calm - N/A   Clear
12:55 AM 60.6 °F 57.0 °F 88% 29.78 in 10.0 mi Calm Calm - N/A   Clear
1:15 AM 59.2 °F 56.1 °F 90% 29.79 in 10.0 mi NNW 3.5 mph - N/A   Clear
1:35 AM 59.0 °F 56.7 °F 92% 29.82 in 10.0 mi NW 5.8 mph - N/A   Clear
1:55 AM 59.5 °F 57.2 °F 92% 29.84 in 10.0 mi NNW 4.6 mph - N/A   Clear
2:15 AM 59.2 °F 56.7 °F 91% 29.85 in 10.0 mi NW 5.8 mph - N/A   Clear
2:35 AM 59.9 °F 56.7 °F 89% 29.85 in 10.0 mi NNW 3.5 mph - N/A   Clear
2:55 AM 59.7 °F 55.9 °F 87% 29.84 in 10.0 mi NW 3.5 mph - N/A   Clear
3:15 AM 58.6 °F 55.6 °F 90% 29.86 in 10.0 mi Calm Calm - N/A   Clear
3:35 AM 57.6 °F 54.7 °F 90% 29.86 in 10.0 mi Calm Calm - N/A   Clear
3:55 AM 56.5 °F 54.5 °F 93% 29.87 in 10.0 mi Calm Calm - N/A   Clear
4:15 AM 55.9 °F 53.8 °F 92% 29.88 in 10.0 mi Calm Calm - N/A   Clear
4:35 AM 55.8 °F 54.1 °F 94% 29.89 in 7.0 mi Calm Calm - N/A   Clear
4:55 AM 57.2 °F 55.0 °F 92% 29.89 in 10.0 mi Calm Calm - N/A   Clear
5:15 AM 55.2 °F 52.3 °F 90% 29.90 in 10.0 mi Calm Calm - N/A   Clear
5:35 AM 56.3 °F 54.0 °F 92% 29.91 in 10.0 mi Calm Calm - N/A   Clear
5:55 AM 54.9 °F 52.7 °F 92% 29.92 in 10.0 mi Calm Calm - N/A   Clear
6:15 AM 55.6 °F 53.8 °F 94% 29.92 in 10.0 mi NW 3.5 mph - N/A   Clear
6:35 AM 56.3 °F 54.0 °F 92% 29.92 in 10.0 mi NNW 5.8 mph - N/A   Clear
6:55 AM 57.9 °F 54.9 °F 90% 29.94 in 10.0 mi NW 5.8 mph - N/A   Scattered Clouds
7:15 AM 58.8 °F 55.6 °F 89% 29.95 in 10.0 mi WNW 5.8 mph - N/A   Scattered Clouds
7:35 AM 60.8 °F 56.3 °F 85% 29.95 in 10.0 mi WNW 6.9 mph - N/A   Scattered Clouds
7:55 AM 61.7 °F 56.5 °F 83% 29.96 in 10.0 mi WNW 6.9 mph - N/A   Clear
8:15 AM 63.9 °F 56.5 °F 77% 29.96 in 10.0 mi WNW 9.2 mph - N/A   Clear
8:35 AM 64.8 °F 55.8 °F 73% 29.96 in 10.0 mi NW 10.4 mph - N/A   Clear
8:55 AM 66.2 °F 55.8 °F 69% 29.96 in 10.0 mi NW 10.4 mph - N/A   Clear
9:15 AM 67.1 °F 54.7 °F 64% 29.97 in 10.0 mi WNW 11.5 mph - N/A   Clear
9:35 AM 67.6 °F 53.8 °F 61% 29.97 in 10.0 mi WNW 12.7 mph 16.1 mph N/A   Clear
9:55 AM 68.9 °F 54.0 °F 59% 29.97 in 10.0 mi WNW 8.1 mph - N/A   Clear
10:15 AM 70.2 °F 53.4 °F 55% 29.97 in 10.0 mi WNW 12.7 mph 16.1 mph N/A   Clear
10:35 AM 71.1 °F 52.9 °F 53% 29.97 in 10.0 mi West 10.4 mph 17.3 mph N/A   Clear
10:55 AM 72.3 °F 53.6 °F 52% 29.97 in 10.0 mi WNW 11.5 mph 17.3 mph N/A   Clear
11:15 AM 72.5 °F 53.1 °F 50% 29.97 in 10.0 mi NW 15.0 mph 20.7 mph N/A   Clear
11:55 AM 73.9 °F 53.1 °F 48% 29.97 in 10.0 mi WNW 15.0 mph 19.6 mph N/A   Clear
12:35 PM 76.6 °F 50.5 °F 40% 29.97 in 10.0 mi WNW 16.1 mph 21.9 mph N/A   Clear
1:15 PM 78.4 °F 48.9 °F 35% 29.96 in 10.0 mi NW 13.8 mph 23.0 mph N/A   Clear
1:35 PM 79.2 °F 47.7 °F 33% 29.95 in 10.0 mi WNW 16.1 mph 26.5 mph N/A   Clear
1:55 PM 79.2 °F 48.7 °F 34% 29.95 in 10.0 mi WNW 15.0 mph 21.9 mph N/A   Clear
2:15 PM 79.9 °F 48.6 °F 33% 29.94 in 10.0 mi NW 17.3 mph 23.0 mph N/A   Clear
2:35 PM 80.1 °F 47.7 °F 32% 29.92 in 10.0 mi NNW 18.4 mph 23.0 mph N/A   Clear
2:55 PM 81.1 °F 47.3 °F 30% 29.94 in 10.0 mi NW 12.7 mph 23.0 mph N/A   Clear
3:15 PM 81.7 °F 45.7 °F 28% 29.94 in 10.0 mi NW 17.3 mph 21.9 mph N/A   Clear
3:35 PM 81.5 °F 45.5 °F 28% 29.94 in 10.0 mi WNW 10.4 mph - N/A   Clear
3:55 PM 81.0 °F 45.3 °F 28% 29.94 in 10.0 mi WNW 10.4 mph - N/A   Clear
4:15 PM 82.2 °F 45.9 °F 28% 29.94 in 10.0 mi NW 13.8 mph 18.4 mph N/A   Clear
4:35 PM 81.9 °F 45.7 °F 28% 29.93 in 10.0 mi NNW 8.1 mph - N/A   Clear
4:55 PM 82.0 °F 44.6 °F 27% 29.93 in 10.0 mi North 10.4 mph 19.6 mph N/A   Clear
5:15 PM 82.4 °F 44.6 °F 26% 29.93 in 10.0 mi NNW 10.4 mph - N/A   Clear
5:35 PM 82.0 °F 44.6 °F 27% 29.93 in 10.0 mi NNW 6.9 mph 16.1 mph N/A   Clear
5:55 PM 82.4 °F 44.2 °F 26% 29.93 in 10.0 mi NW 9.2 mph - N/A   Clear
6:15 PM 82.2 °F 45.5 °F 27% 29.93 in 10.0 mi NNW 8.1 mph - N/A   Clear
6:35 PM 81.9 °F 44.4 °F 27% 29.93 in 10.0 mi North 10.4 mph - N/A   Clear
6:55 PM 80.6 °F 44.1 °F 27% 29.93 in 10.0 mi North 6.9 mph - N/A   Clear
7:15 PM 80.8 °F 44.4 °F 28% 29.93 in 10.0 mi NNW 6.9 mph - N/A   Clear
7:35 PM 80.2 °F 45.7 °F 30% 29.94 in 7.0 mi NNW 5.8 mph - N/A   Clear
7:55 PM 79.3 °F 45.7 °F 30% 29.94 in 7.0 mi NNW 5.8 mph - N/A   Clear
8:15 PM 78.3 °F 45.9 °F 32% 29.95 in 10.0 mi North 3.5 mph - N/A   Clear
8:35 PM 76.5 °F 48.6 °F 37% 29.95 in 10.0 mi North 3.5 mph - N/A   Clear
8:55 PM 73.2 °F 50.7 °F 45% 29.96 in 7.0 mi North 3.5 mph - N/A   Clear
9:15 PM 68.9 °F 52.9 °F 57% 29.96 in 10.0 mi Calm Calm - N/A   Clear
9:35 PM 70.0 °F 49.8 °F 49% 29.97 in 10.0 mi North 5.8 mph - N/A   Clear
9:55 PM 69.1 °F 50.0 °F 51% 29.98 in 10.0 mi North 6.9 mph - N/A   Clear
10:15 PM 68.7 °F 50.0 °F 51% 29.99 in 10.0 mi NNE 8.1 mph - N/A   Clear
10:35 PM 67.6 °F 50.0 °F 53% 29.99 in 10.0 mi NNE 6.9 mph - N/A   Clear
10:55 PM 67.5 °F 50.0 °F 53% 30.00 in 10.0 mi NNE 6.9 mph - N/A   Clear
11:15 PM 66.4 °F 50.2 °F 56% 30.00 in 10.0 mi NNE 4.6 mph - N/A   Clear
11:35 PM 63.3 °F 51.6 °F 66% 30.00 in 10.0 mi Calm Calm - N/A   Clear